Coolangatta Observation History
Time Wind Speed Temp Pressure Rel. Hum Rain
08/08:30am SSW 11-16 kts 22.1°c 1019.1 hPa 69% 3.2mm
08/08:00am S 10-15 kts 21.6°c 1018.8 hPa 71% 3.2mm
08/07:30am SSW 9-12 kts 21.2°c 1018.6 hPa 74% 3.2mm
08/07:00am SSW 9-16 kts 20.2°c 1018.3 hPa 77% 3.2mm
08/06:30am SSW 9-13 kts 19.0°c 1017.9 hPa 81% 3.2mm
08/06:00am SSW 9-13 kts 18.7°c 1017.5 hPa 82% 3.2mm
08/05:30am SSW 8-12 kts 18.6°c 1017.5 hPa 82% 3.2mm
08/05:00am SSW 9-13 kts 18.7°c 1017.1 hPa 83% 3.2mm
08/04:30am SSW 10-15 kts 18.7°c 1016.7 hPa 83% 3.2mm
08/04:00am SSW 9-13 kts 18.7°c 1016.7 hPa 84% 3.2mm
08/03:30am SSW 10-14 kts 18.6°c 1016.4 hPa 84% 3.2mm
08/03:00am SSW 8-12 kts 18.6°c 1016.8 hPa 85% 3.2mm
08/02:30am SSW 9-14 kts 18.7°c 1016.7 hPa 85% 3.2mm
08/02:00am SSW 9-13 kts 18.8°c 1016.9 hPa 86% 3.2mm
08/01:30am SSW 9-12 kts 18.8°c 1017.2 hPa 88% 3.2mm
08/01:00am SSW 9-13 kts 18.8°c 1017.4 hPa 89% 3.2mm
08/12:30am SSW 9-14 kts 19.1°c 1017.4 hPa 86% 2.8mm
08/12:00am SSW 9-13 kts 19.1°c 1017.5 hPa 87% 2.8mm
Time Wind Speed Temp Pressure Rel. Hum Rain
07/11:30pm SSW 10-16 kts 18.9°c 1017.8 hPa 89% 2.8mm
07/11:00pm SSW 8-14 kts 19.0°c 1018.1 hPa 89% 2.2mm
07/10:30pm SSW 10-14 kts 19.2°c 1018.2 hPa 88% 2.2mm
07/10:00pm SSW 8-14 kts 19.1°c 1018.1 hPa 89% 2.2mm
07/09:30pm SSW 9-12 kts 19.1°c 1018.2 hPa 91% 2.2mm
07/09:00pm SW 9-14 kts 19.0°c 1018.1 hPa 92% 2.0mm
07/08:57pm SSW 8-12 kts 19.0°c 1018.2 hPa 93% 2.0mm
07/08:32pm SSW 8-12 kts 19.0°c 1018.5 hPa 91% 1.4mm
07/08:30pm SSW 8-11 kts 19.0°c 1018.5 hPa 91% 1.0mm
07/08:00pm SW 7-15 kts 19.1°c 1017.9 hPa 91% 0.6mm
07/07:56pm SSW 8-15 kts 19.1°c 1017.9 hPa 91% 0.6mm
07/07:45pm SSW 9-15 kts 19.0°c 1018.0 hPa 91% 0.4mm
07/07:30pm SSW 10-15 kts 19.1°c 1017.8 hPa 88% 0.0mm
07/07:00pm SSW 9-15 kts 19.6°c 1017.2 hPa 85% 0.0mm
07/06:30pm SSW 8-15 kts 20.3°c 1017.0 hPa 80% 0.0mm
07/06:00pm SSW 10-18 kts 20.5°c 1016.7 hPa 78% 0.0mm
07/05:30pm S 10-16 kts 21.3°c 1016.3 hPa 73% 0.0mm
07/05:00pm S 10-16 kts 21.7°c 1016.1 hPa 71% 0.0mm
07/04:30pm S 13-18 kts 22.6°c 1015.9 hPa 65% 0.0mm
07/04:00pm S 12-18 kts 23.1°c 1015.8 hPa 65% 0.0mm
07/03:30pm S 16-21 kts 23.0°c 1015.7 hPa 62% 0.0mm
07/03:00pm S 17-23 kts 23.5°c 1015.5 hPa 60% 0.0mm
07/02:30pm S 15-20 kts 25.3°c 1015.3 hPa 55% 0.0mm
07/02:00pm SSE 14-21 kts 26.4°c 1015.2 hPa 49% 0.0mm
07/01:30pm S 11-16 kts 26.4°c 1015.3 hPa 46% 0.0mm
07/01:00pm SSW 11-20 kts 26.1°c 1015.8 hPa 48% 0.0mm
07/12:30pm SSW 11-17 kts 26.0°c 1016.3 hPa 50% 0.0mm
07/12:00pm SSW 11-16 kts 25.2°c 1017.0 hPa 50% 0.0mm
07/11:30am SSW 13-19 kts 24.6°c 1017.6 hPa 53% 0.0mm
07/11:00am SSW 11-18 kts 24.1°c 1018.0 hPa 55% 0.0mm
07/10:30am S 11-16 kts 23.2°c 1018.3 hPa 60% 0.0mm
07/10:00am SSW 11-17 kts 23.6°c 1018.3 hPa 60% 0.0mm
07/09:30am SSW 10-15 kts 23.7°c 1018.3 hPa 59% 0.0mm
07/09:00am SSW 11-18 kts 23.4°c 1018.3 hPa 61% 0.0mm
07/08:30am SSW 11-16 kts 22.7°c 1018.1 hPa 61% 0.0mm
07/08:00am SSW 10-14 kts 22.1°c 1017.7 hPa 62% 0.0mm
07/07:30am SSW 9-14 kts 21.1°c 1017.5 hPa 66% 0.0mm
07/07:00am SSW 7-12 kts 20.5°c 1017.4 hPa 67% 0.0mm
07/06:30am SSW 7-10 kts 19.7°c 1017.1 hPa 69% 0.0mm
07/06:00am SSW 7-10 kts 19.6°c 1016.9 hPa 70% 0.0mm
07/05:30am SW 7-11 kts 19.9°c 1016.7 hPa 70% 0.0mm
07/05:00am SSW 7-9 kts 20.0°c 1016.2 hPa 72% 0.0mm
07/04:30am SSW 7-11 kts 20.0°c 1015.9 hPa 72% 0.0mm
07/04:00am SW 7-10 kts 20.0°c 1015.7 hPa 73% 0.0mm
07/03:30am SW 8-11 kts 20.5°c 1015.7 hPa 71% 0.0mm
07/03:00am SSW 9-14 kts 20.2°c 1015.6 hPa 73% 0.0mm
07/02:30am SSW 8-11 kts 20.2°c 1015.9 hPa 72% 0.0mm
07/02:00am SSW 8-11 kts 20.4°c 1016.1 hPa 72% 0.0mm
07/01:30am SW 6-8 kts 20.4°c 1016.3 hPa 72% 0.0mm
07/01:00am SSW 7-10 kts 20.7°c 1016.5 hPa 70% 0.0mm
07/12:30am SSW 7-10 kts 20.7°c 1016.9 hPa 72% 0.0mm
07/12:00am SSW 7-11 kts 20.8°c 1016.9 hPa 71% 0.0mm
Time Wind Speed Temp Pressure Rel. Hum Rain
06/11:30pm SW 8-12 kts 21.0°c 1017.1 hPa 71% 0.0mm
06/11:00pm SW 7-10 kts 20.6°c 1017.1 hPa 74% 0.0mm
06/10:30pm SW 6-8 kts 20.5°c 1017.3 hPa 75% 0.0mm
06/10:00pm SW 6-8 kts 20.7°c 1017.3 hPa 73% 0.0mm
06/09:30pm SSW 6-9 kts 20.6°c 1017.4 hPa 73% 0.0mm
06/09:00pm SW 6-9 kts 20.9°c 1017.4 hPa 72% 0.0mm
06/08:30pm SSW 7-10 kts 21.0°c 1017.0 hPa 72% 0.0mm
06/08:00pm SSW 7-8 kts 20.9°c 1016.8 hPa 73% 0.0mm
06/07:30pm SSW 6-8 kts 20.8°c 1016.4 hPa 73% 0.0mm
06/07:00pm SSW 5-8 kts 20.8°c 1016.0 hPa 74% 0.0mm
06/06:30pm S 4-6 kts 21.0°c 1015.7 hPa 75% 0.0mm
06/06:00pm S 7-10 kts 21.5°c 1015.5 hPa 73% 0.0mm
06/05:30pm SSE 7-9 kts 22.2°c 1015.3 hPa 70% 0.0mm
06/05:00pm SSE 10-16 kts 23.1°c 1014.9 hPa 64% 0.0mm
06/04:30pm SE 12-16 kts 24.2°c 1014.7 hPa 61% 0.0mm
06/04:00pm SE 12-18 kts 24.7°c 1014.6 hPa 58% 0.0mm
06/03:30pm SE 14-18 kts 24.4°c 1014.7 hPa 58% 0.0mm
06/03:00pm SE 14-19 kts 25.2°c 1014.5 hPa 56% 0.0mm
06/02:30pm SE 13-18 kts 25.2°c 1014.7 hPa 55% 0.0mm
06/02:00pm ESE 12-16 kts 25.5°c 1014.6 hPa 53% 0.0mm
06/01:30pm ESE 12-15 kts 25.9°c 1014.8 hPa 52% 0.0mm
06/01:00pm ESE 12-16 kts 26.0°c 1015.2 hPa 47% 0.0mm
06/12:30pm ESE 11-15 kts 26.0°c 1015.3 hPa 53% 0.0mm
06/12:00pm E 10-13 kts 25.8°c 1015.8 hPa 53% 0.0mm
06/11:30am S 4-7 kts 25.2°c 1016.3 hPa 55% 0.0mm
06/11:00am SSE 5-7 kts 24.1°c 1016.5 hPa 57% 0.0mm
06/10:30am SE 6-11 kts 24.8°c 1016.9 hPa 54% 0.0mm
06/10:00am S 6-10 kts 24.3°c 1017.1 hPa 61% 0.0mm
06/09:30am SSE 7-9 kts 23.9°c 1017.2 hPa 59% 0.0mm
06/09:00am SSE 6-8 kts 23.8°c 1017.2 hPa 62% 0.0mm
06/08:30am SSE 5-7 kts 22.9°c 1017.3 hPa 68% 0.0mm
06/08:00am SW 3-5 kts 21.1°c 1017.3 hPa 78% 0.0mm
06/07:30am SW 4-5 kts 19.4°c 1017.0 hPa 87% 0.0mm
06/07:00am SSW 1-3 kts 17.8°c 1016.5 hPa 94% 0.0mm
06/06:35am S 4 kts 16.7°c 1016.2 hPa 96% 0.0mm
06/06:30am S 3-4 kts 16.5°c 1016.1 hPa 96% 0.0mm
06/06:00am S 3 kts 15.9°c 1015.8 hPa 95% 0.0mm
06/05:53am SSW 3-4 kts 15.8°c 1015.8 hPa 95% 0.0mm
06/05:30am CALM 0 kts 16.0°c 1015.8 hPa 94% 0.0mm
06/05:00am SSW 2-4 kts 16.5°c 1015.5 hPa 95% 0.0mm
06/04:30am CALM 0 kts 16.7°c 1015.3 hPa 95% 0.0mm
06/04:00am CALM 0 kts 16.3°c 1015.1 hPa 93% 0.0mm
06/03:30am CALM 0-3 kts 16.6°c 1015.0 hPa 94% 0.0mm
06/03:00am SSW 4-5 kts 15.8°c 1015.0 hPa 92% 0.0mm
06/02:30am SW 3-4 kts 16.7°c 1015.0 hPa 93% 0.0mm
06/02:00am SW 1-3 kts 16.6°c 1015.0 hPa 92% 0.0mm
06/01:30am SW 2-5 kts 16.8°c 1015.2 hPa 93% 0.0mm
06/01:00am SSW 1-4 kts 16.7°c 1015.3 hPa 91% 0.0mm
06/12:30am SSW 2-4 kts 16.9°c 1015.6 hPa 91% 0.0mm
06/12:00am SSW 1-3 kts 17.2°c 1015.8 hPa 90% 0.0mm